• In Deutschland
  • Länderverzeichnis
  • Für 7 Tage
  • Wassertemperatur
  • Satellitenkarten
  • Wetterkarte
  • Widgets
  • user-avatar
    Anmelden

    Stündliche Wetter Weliko Tarnovo

    Heute, 18 August, Freitag

    Zeit Temperatur Niederschläge Wind Luftdruck Luftfeuchtigkeit
    00:00 +22°C° 0 mm 1 m/S 739 mmHg 45%
    01:00 +21°C° 0 mm 1 m/S 739 mmHg 46%
    02:00 +21°C° 0 mm 1 m/S 739 mmHg 45%
    03:00 +21°C° 0 mm 1 m/S 739 mmHg 46%
    04:00 +20°C° 0 mm 1 m/S 739 mmHg 46%
    05:00 +20°C° 0 mm 1 m/S 739 mmHg 47%
    06:00 +21°C° 0 mm 2 m/S 739 mmHg 44%
    07:00 +24°C° 0 mm 2 m/S 740 mmHg 42%
    08:00 +26°C° 0 mm 2 m/S 740 mmHg 39%
    09:00 +28°C° 0 mm 3 m/S 740 mmHg 35%
    10:00 +30°C° 0 mm 3 m/S 740 mmHg 32%
    11:00 +33°C° 0 mm 4 m/S 740 mmHg 28%
    12:00 +33°C° 0 mm 4 m/S 740 mmHg 26%
    13:00 +34°C° 0 mm 4 m/S 740 mmHg 24%
    14:00 +35°C° 0 mm 4 m/S 739 mmHg 22%
    15:00 +35°C° 0 mm 4 m/S 739 mmHg 22%
    16:00 +35°C° 0 mm 4 m/S 739 mmHg 23%
    17:00 +35°C° 0 mm 3 m/S 739 mmHg 23%
    18:00 +31°C° 0 mm 3 m/S 739 mmHg 27%
    19:00 +29°C° 0 mm 2 m/S 739 mmHg 31%
    20:00 +26°C° 0 mm 2 m/S 739 mmHg 36%
    21:00 +25°C° 0 mm 1 m/S 739 mmHg 37%
    22:00 +24°C° 0 mm 1 m/S 739 mmHg 39%
    23:00 +23°C° 0 mm 1 m/S 739 mmHg 40%

    Morgen, 19 August, Samstag

    Zeit Temperatur Niederschläge Wind Luftdruck Luftfeuchtigkeit
    00:00 +23°C° 0 mm 1 m/S 739 mmHg 41%
    01:00 +22°C° 0 mm 1 m/S 739 mmHg 42%
    02:00 +22°C° 0 mm 1 m/S 739 mmHg 43%
    03:00 +22°C° 0 mm 1 m/S 739 mmHg 44%
    04:00 +21°C° 0 mm 1 m/S 739 mmHg 45%
    05:00 +21°C° 0 mm 1 m/S 739 mmHg 46%
    06:00 +23°C° 0 mm 1 m/S 739 mmHg 43%
    07:00 +25°C° 0 mm 1 m/S 740 mmHg 39%
    08:00 +25°C° 0 mm 0 m/S 740 mmHg 36%
    09:00 +29°C° 0 mm 1 m/S 740 mmHg 32%
    10:00 +31°C° 0 mm 2 m/S 740 mmHg 29%
    11:00 +34°C° 0 mm 2 m/S 740 mmHg 25%
    12:00 +35°C° 0 mm 3 m/S 739 mmHg 23%
    13:00 +35°C° 0 mm 3 m/S 739 mmHg 21%
    14:00 +36°C° 0 mm 3 m/S 739 mmHg 20%
    15:00 +36°C° 0 mm 3 m/S 738 mmHg 20%
    16:00 +35°C° 0 mm 3 m/S 738 mmHg 20%
    17:00 +35°C° 0 mm 3 m/S 738 mmHg 20%
    18:00 +31°C° 0 mm 2 m/S 738 mmHg 24%
    19:00 +29°C° 0 mm 2 m/S 738 mmHg 28%
    20:00 +26°C° 0 mm 1 m/S 738 mmHg 32%
    21:00 +25°C° 0 mm 1 m/S 738 mmHg 35%
    22:00 +24°C° 0 mm 1 m/S 738 mmHg 37%
    23:00 +24°C° 0 mm 2 m/S 739 mmHg 39%

    übermorgen, 20 August, Sonntag

    Zeit Temperatur Niederschläge Wind Luftdruck Luftfeuchtigkeit
    00:00 +23°C° 0 mm 1 m/S 739 mmHg 41%
    01:00 +22°C° 0 mm 1 m/S 738 mmHg 44%
    02:00 +22°C° 0 mm 1 m/S 738 mmHg 46%
    03:00 +22°C° 0 mm 1 m/S 738 mmHg 47%
    04:00 +21°C° 0 mm 1 m/S 738 mmHg 48%
    05:00 +21°C° 0 mm 1 m/S 738 mmHg 49%
    06:00 +23°C° 0 mm 1 m/S 738 mmHg 46%
    07:00 +25°C° 0 mm 1 m/S 738 mmHg 42%
    08:00 +27°C° 0 mm 1 m/S 738 mmHg 38%
    09:00 +29°C° 0 mm 2 m/S 738 mmHg 34%
    10:00 +30°C° 0 mm 2 m/S 738 mmHg 30%
    11:00 +33°C° 0 mm 3 m/S 738 mmHg 26%
    12:00 +34°C° 0 mm 3 m/S 738 mmHg 24%
    13:00 +35°C° 0 mm 3 m/S 737 mmHg 23%
    14:00 +35°C° 0 mm 3 m/S 737 mmHg 22%
    15:00 +35°C° 0 mm 3 m/S 736 mmHg 22%
    16:00 +35°C° 0 mm 3 m/S 736 mmHg 22%
    17:00 +35°C° 0 mm 3 m/S 736 mmHg 23%
    18:00 +31°C° 0 mm 2 m/S 736 mmHg 27%
    19:00 +29°C° 0 mm 2 m/S 736 mmHg 31%
    20:00 +26°C° 0 mm 1 m/S 736 mmHg 35%
    21:00 +25°C° 0 mm 2 m/S 736 mmHg 39%
    22:00 +24°C° 0 mm 2 m/S 736 mmHg 42%
    23:00 +23°C° 0 mm 2 m/S 736 mmHg 45%

    21 August, Montag

    Zeit Temperatur Niederschläge Wind Luftdruck Luftfeuchtigkeit
    00:00 +21°C° 0 mm 3 m/S 736 mmHg 53%
    01:00 +20°C° 0 mm 3 m/S 736 mmHg 62%
    02:00 +19°C° 0 mm 3 m/S 736 mmHg 70%
    03:00 +19°C° 0 mm 4 m/S 736 mmHg 73%
    04:00 +19°C° 0 mm 4 m/S 736 mmHg 76%
    05:00 +19°C° 0 mm 4 m/S 736 mmHg 78%
    06:00 +20°C° 0 mm 4 m/S 736 mmHg 74%
    07:00 +21°C° 0 mm 5 m/S 736 mmHg 69%
    08:00 +22°C° 0 mm 6 m/S 736 mmHg 65%
    09:00 +23°C° 0,1 mm 5 m/S 736 mmHg 63%
    10:00 +25°C° 0,1 mm 5 m/S 736 mmHg 60%
    11:00 +26°C° 0,1 mm 5 m/S 736 mmHg 58%
    12:00 +27°C° 0 mm 5 m/S 736 mmHg 53%
    13:00 +28°C° 0 mm 5 m/S 735 mmHg 48%
    14:00 +29°C° 0 mm 4 m/S 735 mmHg 43%
    15:00 +28°C° 0 mm 5 m/S 735 mmHg 41%
    16:00 +28°C° 0 mm 5 m/S 735 mmHg 40%
    17:00 +28°C° 0 mm 5 m/S 735 mmHg 38%
    18:00 +26°C° 0,2 mm 5 m/S 735 mmHg 41%
    19:00 +23°C° 0,2 mm 4 m/S 736 mmHg 45%
    20:00 +21°C° 0,2 mm 3 m/S 736 mmHg 49%
    21:00 +20°C° 0 mm 3 m/S 736 mmHg 53%
    22:00 +19°C° 0 mm 3 m/S 737 mmHg 58%
    23:00 +18°C° 0 mm 3 m/S 737 mmHg 63%

    22 August, Dienstag

    Zeit Temperatur Niederschläge Wind Luftdruck Luftfeuchtigkeit
    00:00 +17°C° 0 mm 2 m/S 737 mmHg 65%
    01:00 +17°C° 0 mm 2 m/S 737 mmHg 66%
    02:00 +16°C° 0 mm 2 m/S 738 mmHg 68%
    03:00 +16°C° 0 mm 2 m/S 738 mmHg 69%
    04:00 +15°C° 0 mm 2 m/S 738 mmHg 69%
    05:00 +15°C° 0 mm 1 m/S 738 mmHg 70%
    06:00 +17°C° 0 mm 2 m/S 738 mmHg 64%
    07:00 +18°C° 0 mm 2 m/S 739 mmHg 58%
    08:00 +20°C° 0 mm 3 m/S 739 mmHg 51%
    09:00 +22°C° 0 mm 3 m/S 739 mmHg 47%
    10:00 +23°C° 0 mm 4 m/S 739 mmHg 42%
    11:00 +26°C° 0 mm 4 m/S 739 mmHg 37%
    12:00 +27°C° 0 mm 4 m/S 739 mmHg 34%
    13:00 +27°C° 0 mm 4 m/S 738 mmHg 31%
    14:00 +28°C° 0 mm 4 m/S 738 mmHg 29%
    15:00 +28°C° 0 mm 4 m/S 738 mmHg 29%
    16:00 +27°C° 0 mm 4 m/S 738 mmHg 29%
    17:00 +27°C° 0 mm 4 m/S 738 mmHg 29%
    18:00 +25°C° 0 mm 4 m/S 738 mmHg 32%
    19:00 +22°C° 0 mm 3 m/S 738 mmHg 35%
    20:00 +21°C° 0 mm 3 m/S 739 mmHg 38%
    21:00 +20°C° 0 mm 3 m/S 739 mmHg 41%
    22:00 +19°C° 0 mm 2 m/S 739 mmHg 44%
    23:00 +18°C° 0 mm 2 m/S 739 mmHg 47%

    23 August, Mittwoch

    Zeit Temperatur Niederschläge Wind Luftdruck Luftfeuchtigkeit
    00:00 +17°C° 0 mm 2 m/S 739 mmHg 50%
    01:00 +17°C° 0 mm 2 m/S 739 mmHg 52%
    02:00 +16°C° 0 mm 2 m/S 739 mmHg 54%
    03:00 +15°C° 0 mm 2 m/S 740 mmHg 56%
    04:00 +15°C° 0 mm 2 m/S 740 mmHg 58%
    05:00 +14°C° 0 mm 2 m/S 740 mmHg 60%
    06:00 +16°C° 0 mm 2 m/S 740 mmHg 55%
    07:00 +18°C° 0 mm 2 m/S 741 mmHg 49%
    08:00 +20°C° 0 mm 2 m/S 741 mmHg 44%
    09:00 +22°C° 0 mm 3 m/S 741 mmHg 40%
    10:00 +25°C° 0 mm 3 m/S 741 mmHg 36%
    11:00 +27°C° 0 mm 3 m/S 741 mmHg 31%
    12:00 +27°C° 0 mm 3 m/S 741 mmHg 29%
    13:00 +28°C° 0 mm 3 m/S 740 mmHg 27%
    14:00 +29°C° 0 mm 3 m/S 740 mmHg 24%
    15:00 +29°C° 0 mm 2 m/S 740 mmHg 24%
    16:00 +29°C° 0 mm 2 m/S 740 mmHg 24%
    17:00 +29°C° 0 mm 2 m/S 740 mmHg 24%
    18:00 +26°C° 0 mm 2 m/S 740 mmHg 28%
    19:00 +24°C° 0 mm 1 m/S 740 mmHg 33%
    20:00 +21°C° 0 mm 1 m/S 740 mmHg 37%
    21:00 +21°C° 0 mm 1 m/S 741 mmHg 38%
    22:00 +20°C° 0 mm 1 m/S 741 mmHg 39%
    23:00 +19°C° 0 mm 2 m/S 741 mmHg 40%
    Mehr zeigen